Regional Weather Roundup
Issued by NWS

Home | Current Version | Previous Version | Graphics & Text | Print | Product List | Glossary Off
Versions: 1 2 3 4 5 6 7 8 9 10 11 12 13 14 15 16 17 18 19 20 21 22 23 24 25 26 27 28 29 30 31 32 33 34 35 36 37 38 39 40 41 42 43 44 45 46 47 48 49 50

000
ASUS43 KMKX 221710
RWRWI

WISCONSIN REGIONAL WEATHER ROUNDUP
NATIONAL WEATHER SERVICE MILWAUKEE/SULLIVAN WI
1100 AM CST THU FEB 22 2018

NOTE: "FAIR" INDICATES FEW OR NO CLOUDS BELOW 12,000 FEET WITH NO
SIGNIFICANT WEATHER AND/OR OBSTRUCTIONS TO VISIBILITY.

WIZ001-002-006>008-014>016-023>028-221800-
NORTHWEST WISCONSIN

CITY           SKY/WX    TMP DP  RH WIND       PRES   REMARKS
SUPERIOR ARPT  FAIR      15   3  58 CALM      30.62F
ASHLAND        FAIR      12   4  70 CALM      30.62F
HAYWARD        PTSUNNY   20   4  50 SE7       30.57F WCI  11
SIREN          CLOUDY    18   5  56 S6        30.58F WCI  10
CUMBERLAND     FAIR      19   5  53 SE9       30.56F WCI   9
RICE LAKE      FAIR      20   7  56 SE8       30.59F WCI  11
CHETEK         FAIR      21   7  55 CALM      30.58F
LADYSMITH      FAIR      22   8  54 E3        30.59F
EAU CLAIRE     CLOUDY    23   8  52 E6        30.58F WCI  16
MENOMONIE      PTSUNNY   23   9  55 E6        30.59S WCI  15
NEW RICHMOND   PTSUNNY   20   7  57 E10       30.55F WCI   9
OSCEOLA        FAIR      22   8  54 E10       30.58F WCI  11
$$

WIZ003>005-009-010-017-018-221800-
NORTH CENTRAL WISCONSIN

CITY           SKY/WX    TMP DP  RH WIND       PRES   REMARKS
MANITOWISH WTR FAIR      20   7  57 SE5       30.55F WCI  14
ARBOR VITAE    FAIR      24  11  57 SE5       30.55F WCI  18
WOODRUFF       FAIR      24  11  57 SE5       30.55F WCI  18
RHINELANDER    PTSUNNY   22  10  60 E7        30.57F WCI  13
EAGLE RIVER    FAIR      23   8  51 SE5       30.57F WCI  17
LAND O LAKES   PTSUNNY   25   8  49 E7        30.58F WCI  17
PHILLIPS       FAIR      21   8  57 SE3       30.56F
TOMAHAWK       PTSUNNY   25  10  53 CALM      30.58F
MEDFORD        PTSUNNY   21   9  58 SE5       30.56S WCI  15
MERRILL        FAIR      23  12  62 SE6       30.60S WCI  16
$$

WIZ029-030-035-036-043>047-221800-
CENTRAL WISCONSIN

CITY           SKY/WX    TMP DP  RH WIND       PRES   REMARKS
WAUSAU         FAIR      23  12  62 E8        30.58F WCI  14
MOSINEE        CLOUDY    23  12  63 E6        30.60S WCI  16
MARSHFIELD     PTSUNNY   21  12  68 E8        30.56F WCI  11
STEVENS POINT  CLOUDY    22  12  66 E7        30.61S WCI  13
WAUPACA        CLOUDY    27  16  61 E7        30.62F WCI  20
WAUTOMA        FAIR      25  17  72 NE7       30.61F WCI  17
WISC RAPIDS    CLOUDY    26  14  60 E7        30.61S WCI  18
CAMP DOUGLAS   CLOUDY    27  16  63 E7        30.58F WCI  19
$$

WIZ011>013-019>022-031-037>040-048>050-221800-
NORTHEAST WISCONSIN

CITY           SKY/WX    TMP DP  RH WIND       PRES   REMARKS
ANTIGO         FAIR      22  11  62 SE8       30.58F WCI  12
SHAWANO        FAIR      26  14  59 NE5       30.64F WCI  21
OCONTO         CLOUDY    27  17  65 E6        30.65S WCI  20
STURGEON BAY   PTSUNNY   31  22  69 VRB7      30.65F WCI  24
GREEN BAY      CLOUDY    24  15  68 NE6       30.65F WCI  17
MANITOWOC      CLOUDY    31  20  63 E10       30.64F WCI  22
APPLETON       CLOUDY    25  14  63 E8        30.60F WCI  16
CLINTONVILLE   CLOUDY    27  14  58 SE3       30.63F
OSHKOSH        CLOUDY    26  18  71 NE8       30.61F WCI  18
$$

WIZ032>034-041-042-053>061-221800-
SOUTHWEST WISCONSIN

CITY           SKY/WX    TMP DP  RH WIND       PRES   REMARKS
LA CROSSE      CLOUDY    26  17  68 NE7       30.55F WCI  18
SPARTA         CLOUDY    24  17  75 NE9       30.57F WCI  15
VIROQUA        CLOUDY    27  20  75 E13       30.51F WCI  16
BOSCOBEL       PTSUNNY   30  17  58 NE8       30.55F WCI  22
PRAIRIE DU CHI CLOUDY    30  15  53 E7        30.54F WCI  23
PLATTEVILLE    FAIR      30  24  77 E15G21    30.52F WCI  19
$$

WIZ056-057-062-063-064-067-068-221800-
SOUTH CENTRAL WISCONSIN

CITY           SKY/WX    TMP DP  RH WIND       PRES   REMARKS
REEDSBURG      FAIR      26  16  66 E9        30.57F WCI  17
BARABOO/DELLS  CLOUDY    26  17  69 NE7       30.57F WCI  18
LONE ROCK      CLOUDY    28  19  69 E14       30.56F WCI  17
MINERAL POINT  FAIR      32  23  69 E13       30.52F WCI  22
MADISON        CLOUDY    28  20  71 E10       30.57F WCI  19
MIDDLETON      CLOUDY    30  22  71 E7        30.57F WCI  23
WATERTOWN      CLOUDY    31  23  72 E9        30.58F WCI  23
MONROE         PTSUNNY   30  23  74 NE14      30.52F WCI  20
JANESVILLE     CLOUDY    34  30  86 NE14      30.54F WCI  24
$$

WIZ051-052-058>065-066-070>072-221800-
SOUTHEAST WISCONSIN

CITY           SKY/WX    TMP DP  RH WIND       PRES   REMARKS
MILWAUKEE      CLOUDY    34  27  75 NE14      30.60S WCI  25
WAUKESHA       PTSUNNY   30  23  74 E10       30.59S WCI  21
MILWAUKEE/TIMM CLOUDY    34  23  64 E10       30.61R WCI  26
RACINE         CLOUDY    35  28  75 NE12      30.61R WCI  27
BURLINGTON     FAIR      33  27  77 NE9       30.58S WCI  26
KENOSHA        CLOUDY    35  27  72 NE15      30.58R WCI  25
FOND DU LAC    CLOUDY    31  21  66 NE10      30.61F WCI  22
SHEBOYGAN      CLOUDY    33  23  66 NE12      30.62F WCI  24
WEST BEND      CLOUDY    32  25  74 NE12      30.60S WCI  23
JUNEAU         CLOUDY    30  20  67 E9        30.59F WCI  21
$$

LSZ147-162-221800-
LAKE SUPERIOR

STATION/POSITION TIME  TEMP    WIND        PRES    WAVE
                       AIR SEA DIR/SP/G            HT/PER
                 (UTC) (F)     (DEG/KT/KT) (MB)    (FT/S)
DEVILS ISLAND    1700   18     120/  4/  5 1038.4F
SAXON HARBOR     1640   17     290/  2/  2 1036.6F
$$

LMZ867-665-643>646-221800-
LAKE MICHIGAN

STATION/POSITION TIME  TEMP    WIND        PRES    WAVE
                       AIR SEA DIR/SP/G            HT/PER
                 (UTC) (F)     (DEG/KT/KT) (MB)    (FT/S)
NORTHPORT PIER   1630   28                 1038.3F
KEWAUNEE LAKESHO 1648   30      60/  5/  8 1037.0R
SHEBOYGAN LAKESH 1700   31      50/ 10/ 12 1038.1F
PORT WASHINGTON  1640   33      70/ 10/ 13 1037.3F
MILWAUKEE LAKESH 1620   31      60/ 11/ 12   N/A
KENOSHA   LAKESH 1700   33      60/ 10/ 12 1035.6
$$

TC  - TEMPERATURE IN CELSIUS
VSB - VISIBILITY IN STATUTE MILES
WCI - WIND CHILL INDEX
HX  - HEAT INDEX





USA.gov is the U.S. government's official web portal to all federal, state and local government web resources and services.